Location: Kershaw
(34.5481°N, 80.5823°W)
Time: 20:09:06
(UTC+00:00)

Courier 1B Rocket - Pass Details

Date: 26 September 2022
Orbit: 920 x 1202 km, 28.3° (Epoch: 01 December)

Event Time Altitude Azimuth Distance (km) Brightness Sun altitude
Rises 03:07:17 0° 239° (WSW) 3,560 - -45.5°
Reaches altitude 10° 03:10:05 10° 232° (SW) 2,605 - -45.9°
Maximum altitude 03:15:44 37° 166° (SSE) 1,389 - -46.8°
Drops below altitude 10° 03:21:27 10° 101° (E) 2,637 - -47.6°
Sets 03:24:17 0° 93° (E) 3,609 - -48.0°
